Starlink 11397

operational
NORAD ID: 62590 Int'l Des: 2025-008 Owner: SPXS Country: US Constellation: starlink
LEOCIRCULAR

关于 Starlink 11397

正在加载描述...

实时位置

正在加载3D地球...

即将过境

高度历史

Altitude vs Time

uPlot chart will show altitude changes over time

两行轨道根数

1 62590U 25008D 25306.35949291 .00230264 00000-0 17429-2 0 9997
2 62590 43.0012 173.2098 0001360 275.4482 84.6230 15.70920305 47204
Epoch: Nov 2, 2025 • Age: 34 hours

当前状态

高度 356.8 km
速度 7.70 km/s
星下点 36.79°N, 102.41°W
发射日期 Jan 13, 2025
运行时间 0.8 years
类型 internet

技术详情

分类 Payload
质量 960.00 kg
干质量 910.00 kg
总质量 960.00 kg
长度 0.30 m
直径 4.10 m
跨度 29.00 m
形状 Box + pan
制造商 SPXS
平台类型 Starlink V2MD
阶段状态 In Orbit
所有者/国家 SPXS/US

大型星座

Loading constellations...